TimeCDT,TemperatureF,Dew PointF,Humidity,Sea Level PressureIn,VisibilityMPH,Wind Direction,Wind SpeedMPH,Gust SpeedMPH,PrecipitationIn,Events,Conditions,WindDirDegrees,DateUTC
12:15 AM,78.8,64.4,61,30.07,10.0,Calm,Calm,-,N/A,,Clear,0,2013-09-12 05:15:00
12:55 AM,78.8,64.4,61,30.07,10.0,SSE,3.5,-,N/A,,Clear,150,2013-09-12 05:55:00
1:15 AM,78.8,64.4,61,30.07,10.0,Calm,Calm,-,N/A,,Clear,0,2013-09-12 06:15:00
1:35 AM,78.8,64.4,61,30.06,10.0,ESE,5.8,-,N/A,,Clear,120,2013-09-12 06:35:00
1:55 AM,78.8,64.4,61,30.06,10.0,SE,3.5,-,N/A,,Clear,130,2013-09-12 06:55:00
2:15 AM,78.8,64.4,61,30.06,10.0,Calm,Calm,-,N/A,,Clear,0,2013-09-12 07:15:00
2:35 AM,77.0,64.4,65,30.06,10.0,SSE,3.5,-,N/A,,Mostly Cloudy,150,2013-09-12 07:35:00
2:55 AM,77.0,64.4,65,30.06,10.0,SSE,4.6,-,N/A,,Overcast,150,2013-09-12 07:55:00
3:15 AM,77.0,64.4,65,30.06,10.0,Calm,Calm,-,N/A,,Mostly Cloudy,0,2013-09-12 08:15:00
3:35 AM,77.0,64.4,65,30.06,10.0,Calm,Calm,-,N/A,,Clear,0,2013-09-12 08:35:00
3:55 AM,77.0,64.4,65,30.06,10.0,Calm,Calm,-,N/A,,Clear,0,2013-09-12 08:55:00
4:15 AM,77.0,64.4,65,30.06,10.0,Calm,Calm,-,N/A,,Clear,0,2013-09-12 09:15:00
4:35 AM,75.2,64.4,69,30.06,10.0,SE,3.5,-,N/A,,Clear,140,2013-09-12 09:35:00
4:55 AM,75.2,64.4,69,30.06,10.0,SSE,3.5,-,N/A,,Clear,160,2013-09-12 09:55:00
5:15 AM,75.2,64.4,69,30.06,10.0,South,3.5,-,N/A,,Clear,170,2013-09-12 10:15:00
5:35 AM,75.2,64.4,69,30.06,10.0,South,3.5,-,N/A,,Clear,180,2013-09-12 10:35:00
5:55 AM,75.2,64.4,69,30.06,10.0,SSW,3.5,-,N/A,,Clear,200,2013-09-12 10:55:00
6:15 AM,75.2,64.4,69,30.06,10.0,SSW,3.5,-,N/A,,Clear,200,2013-09-12 11:15:00
6:35 AM,75.2,64.4,69,30.07,10.0,SSW,4.6,-,N/A,,Clear,210,2013-09-12 11:35:00
6:50 AM,75.2,64.4,69,30.08,10.0,Calm,Calm,-,N/A,,Clear,0,2013-09-12 11:50:00
6:55 AM,75.2,64.4,69,30.08,10.0,Calm,Calm,-,N/A,,Clear,0,2013-09-12 11:55:00
7:50 AM,75.2,64.4,69,30.09,10.0,Calm,Calm,-,N/A,,Clear,0,2013-09-12 12:50:00
8:50 AM,78.8,64.4,61,30.10,10.0,SW,4.6,-,N/A,,Clear,220,2013-09-12 13:50:00
9:50 AM,84.2,64.4,51,30.10,10.0,SW,4.6,-,N/A,,Clear,220,2013-09-12 14:50:00
10:50 AM,87.8,64.4,46,30.11,10.0,South,4.6,-,N/A,,Clear,190,2013-09-12 15:50:00
11:50 AM,89.6,62.6,40,30.10,10.0,Calm,Calm,-,N/A,,Clear,0,2013-09-12 16:50:00
12:50 PM,89.6,62.6,40,30.08,10.0,Calm,Calm,-,N/A,,Scattered Clouds,0,2013-09-12 17:50:00
1:50 PM,91.4,62.6,38,30.05,10.0,Calm,Calm,-,N/A,,Mostly Cloudy,0,2013-09-12 18:50:00
2:50 PM,91.4,60.8,36,30.02,10.0,Calm,Calm,-,N/A,,Mostly Cloudy,0,2013-09-12 19:50:00
3:50 PM,93.2,60.8,34,29.99,10.0,ENE,5.8,-,N/A,,Scattered Clouds,70,2013-09-12 20:50:00
4:59 PM,93.2,60.8,34,29.96,10.0,Calm,Calm,-,N/A,,Scattered Clouds,0,2013-09-12 21:59:00
5:50 PM,95.0,60.8,32,29.95,10.0,East,4.6,-,N/A,,Scattered Clouds,80,2013-09-12 22:50:00
6:58 PM,93.2,60.8,34,29.95,10.0,East,3.5,-,N/A,,Scattered Clouds,90,2013-09-12 23:58:00
7:50 PM,91.4,60.8,36,29.96,10.0,ENE,4.6,-,N/A,,Clear,70,2013-09-13 00:50:00
9:15 PM,86.0,62.6,45,29.99,10.0,Calm,Calm,-,N/A,,Clear,0,2013-09-13 02:15:00
9:35 PM,87.8,62.6,43,29.99,10.0,ENE,3.5,-,N/A,,Clear,70,2013-09-13 02:35:00
9:55 PM,86.0,62.6,45,29.99,10.0,Calm,Calm,-,N/A,,Clear,0,2013-09-13 02:55:00
10:15 PM,86.0,62.6,45,30.00,10.0,Calm,Calm,-,N/A,,Clear,0,2013-09-13 03:15:00
10:35 PM,86.0,62.6,45,30.00,10.0,Calm,Calm,-,N/A,,Clear,0,2013-09-13 03:35:00
10:55 PM,84.2,62.6,48,29.99,10.0,Calm,Calm,-,N/A,,Clear,0,2013-09-13 03:55:00
11:15 PM,82.4,62.6,51,29.99,10.0,East,3.5,-,N/A,,Clear,80,2013-09-13 04:15:00
11:35 PM,82.4,62.6,51,29.99,10.0,Calm,Calm,-,N/A,,Scattered Clouds,0,2013-09-13 04:35:00
11:55 PM,82.4,64.4,54,30.00,10.0,Calm,Calm,-,N/A,,Mostly Cloudy,0,2013-09-13 04:55:00